| time (UTC) | temp F | wind direction | speed MPH | gust MPH | rain 1hr in | rain 24hr in | rain mn in | humidity % | barometer mb |
| 20260504201535 | 67 | 307 | 2.0 | 8.0 | 0.00 | 0.00 | 0.00 | 44 | 1011.3 |
| 20260504200036 | 67 | 321 | 3.0 | 10.0 | 0.00 | 0.00 | 0.00 | 42 | 1011.1 |
| 20260504194550 | 67 | 257 | 1.0 | 12.0 | 0.00 | 0.00 | 0.00 | 44 | 1011.2 |
| 20260504193034 | 67 | 312 | 2.0 | 10.0 | 0.00 | 0.00 | 0.00 | 44 | 1011.5 |
| 20260504191543 | 68 | 207 | 4.0 | 12.0 | 0.00 | 0.00 | 0.00 | 43 | 1011.6 |
| 20260504190043 | 68 | 80 | 2.0 | 11.0 | 0.00 | 0.00 | 0.00 | 43 | 1011.7 |
| 20260504184539 | 67 | 36 | 2.0 | 8.0 | 0.00 | 0.00 | 0.00 | 46 | 1012.0 |
| 20260504183037 | 66 | 64 | 5.0 | 11.0 | 0.00 | 0.00 | 0.00 | 46 | 1011.8 |
| 20260504181543 | 66 | 59 | 2.0 | 14.0 | 0.00 | 0.00 | 0.00 | 51 | 1012.1 |
| 20260504180055 | 63 | 235 | 5.0 | 16.0 | 0.00 | 0.00 | 0.00 | 52 | 1012.4 |
| 20260504174535 | 63 | 114 | 5.0 | 14.0 | 0.00 | 0.00 | 0.00 | 52 | 1012.4 |
| 20260504173036 | 61 | 340 | 1.0 | 8.0 | 0.00 | 0.00 | 0.00 | 56 | 1012.8 |
| 20260504171535 | 61 | 291 | 4.0 | 11.0 | 0.00 | 0.00 | 0.00 | 55 | 1012.8 |
| 20260504081537 | 46 | 106 | 3.0 | 11.0 | 0.00 | 0.00 | 0.00 | 59 | 1014.7 |
| 20260504044536 | 47 | 165 | 1.0 | 4.0 | 0.00 | 0.00 | 0.00 | 47 | 1015.4 |
| 20260504043034 | 47 | 123 | 1.0 | 4.0 | 0.00 | 0.00 | 0.00 | 47 | 1015.3 |
| 20260504041536 | 47 | 145 | 2.0 | 4.0 | 0.00 | 0.00 | 0.00 | 47 | 1015.4 |
| 20260504040043 | 47 | 98 | 1.0 | 3.0 | 0.00 | 0.00 | 0.00 | 47 | 1015.4 |
| 20260504034547 | 47 | 95 | 1.0 | 3.0 | 0.00 | 0.00 | 0.00 | 47 | 1015.5 |
| 20260504033036 | 47 | 180 | 0.0 | 4.0 | 0.00 | 0.00 | 0.00 | 46 | 1015.6 |
| 20260504031545 | 47 | 73 | 1.0 | 3.0 | 0.00 | 0.00 | 0.00 | 46 | 1015.5 |
| 20260504030041 | 47 | 100 | 0.0 | 3.0 | 0.00 | 0.00 | 0.00 | 45 | 1015.6 |
| 20260504024542 | 47 | 33 | 0.0 | 2.0 | 0.00 | 0.00 | 0.00 | 45 | 1015.6 |
| 20260504023037 | 47 | 45 | 1.0 | 5.0 | 0.00 | 0.00 | 0.00 | 45 | 1015.7 |
| 20260504021535 | 48 | 47 | 0.0 | 4.0 | 0.00 | 0.00 | 0.00 | 45 | 1015.8 |
| 20260504020040 | 47 | 0 | 1.0 | 3.0 | 0.00 | 0.00 | 0.00 | 44 | 1015.7 |
| 20260504014537 | 47 | 0 | 1.0 | 3.0 | 0.00 | 0.00 | 0.00 | 45 | 1015.7 |
| 20260504013037 | 47 | 26 | 0.0 | 2.0 | 0.00 | 0.00 | 0.00 | 47 | 1015.6 |
| 20260504011537 | 47 | 0 | 0.0 | 1.0 | 0.00 | 0.00 | 0.00 | 45 | 1015.4 |
| 20260504010042 | 47 | 341 | 0.0 | 2.0 | 0.00 | 0.00 | 0.00 | 45 | 1015.1 |
| 20260504004537 | 47 | 0 | 0.0 | 2.0 | 0.00 | 0.00 | 0.00 | 44 | 1015.1 |
| 20260504003043 | 47 | 0 | 0.0 | 6.0 | 0.00 | 0.00 | 0.00 | 45 | 1015.0 |
| 20260504001547 | 48 | 0 | 0.0 | 3.0 | 0.00 | 0.00 | 0.00 | 45 | 1015.0 |
| 20260504000037 | 48 | 0 | 0.0 | 0.0 | 0.00 | 0.00 | 0.00 | 45 | 1015.0 |
| 20260503234535 | 49 | 0 | 0.0 | 1.0 | 0.00 | 0.00 | 0.00 | 44 | 1015.2 |
| 20260503233037 | 50 | 0 | 0.0 | 4.0 | 0.00 | 0.00 | 0.00 | 41 | 1015.2 |
| 20260503231546 | 50 | 0 | 1.0 | 4.0 | 0.00 | 0.00 | 0.00 | 40 | 1015.2 |
| 20260503230038 | 51 | 1 | 0.0 | 9.0 | 0.00 | 0.00 | 0.00 | 40 | 1015.2 |
| 20260503224536 | 51 | 319 | 2.0 | 8.0 | 0.00 | 0.00 | 0.00 | 38 | 1015.1 |
| 20260503223043 | 51 | 176 | 0.0 | 9.0 | 0.00 | 0.00 | 0.00 | 38 | 1015.2 |
| 20260503221537 | 52 | 305 | 2.0 | 6.0 | 0.00 | 0.00 | 0.00 | 37 | 1015.0 |
| 20260503220040 | 52 | 0 | 0.0 | 6.0 | 0.00 | 0.00 | 0.00 | 37 | 1015.0 |
| 20260503214542 | 52 | 217 | 2.0 | 5.0 | 0.00 | 0.00 | 0.00 | 37 | 1015.0 |
| 20260503213052 | 52 | 192 | 2.0 | 7.0 | 0.00 | 0.00 | 0.00 | 37 | 1015.1 |
| 20260503211556 | 52 | 337 | 3.0 | 8.0 | 0.00 | 0.00 | 0.00 | 36 | 1015.2 |
| 20260503210036 | 52 | 0 | 3.0 | 11.0 | 0.00 | 0.00 | 0.00 | 35 | 1015.4 |
| 20260503204552 | 53 | 269 | 1.0 | 7.0 | 0.00 | 0.00 | 0.00 | 37 | 1015.5 |
| 20260503203040 | 52 | 1 | 2.0 | 9.0 | 0.00 | 0.00 | 0.00 | 40 | 1015.5 |